Location: Ecklingerode
(51.5036°N, 10.3122°E)
Time: 06:08:13
(UTC+00:00)

Cosmos 1777 Rocket - Pass Details

Date: 29 October 2020
Orbit: 758 x 775 km, 74.0° (Epoch: 01 December)

Event Time Altitude Azimuth Distance (km) Brightness Sun altitude
Rises 18:30:21 0° 334° (NNW) 3,231 7.7 -24.4°
Reaches altitude 10° 18:32:43 10° 334° (NNW) 2,302 6.9 -24.7°
Maximum altitude 18:37:57 87° 248° (WSW) 769 3.9 -25.5°
Enters shadow 18:38:35 70° 165° (SSE) 812 3.9 -25.6°
